Corsicana, TX

8:44 PM CST on February 21, 2017 (GMT -0600)
Richland Chambers Res.,Eureka | | Change Station

Elev 350 ft 31.99 °N, 96.28 °W | Updated 8 seconds ago

Clear
Clear
61.5 °F
Feels Like 61.5 °F
N
1.0
Wind Variable Wind from NNW
Gusts 2.0 mph

Today
High -- | Low -- °F
--% Chance of Precip.
Yesterday
High -- | Low -- °F
Precip. -- in
Pressure 29.93 in
Visibility 10.0 miles
Clouds Clear
Dew Point 46 °F
Humidity 57%
Rainfall 0.00 in
Snow Depth Not available.
7:01 AM 6:16 PM
Waning Crescent, 21% visible
METAR KCRS 220153Z AUTO 34003KT 10SM CLR 16/09 A2994 RMK AO2 SLP135 T01610094
Pressure 29.93 in
Visibility 10.0 miles
Clouds Clear
Dew Point 46 °F
Humidity 57%
Rainfall 0.00 in
Snow Depth Not available.
7:01 AM 6:16 PM
Waning Crescent, 21% visible
METAR KCRS 220153Z AUTO 34003KT 10SM CLR 16/09 A2994 RMK AO2 SLP135 T01610094

Get Your Daily Forecast Email!

Thanks for signing up!

Be on the lookout for a verification email in your inbox.

You'll start receiving the daily forecast at 8 AM.

×

10-Day Weather Forecast

Almanac

Astronomy

Feb. 21, 2017 Rise Set
Actual Time
Civil Twilight
Nautical Twilight
Astronomical Twilight
Moon
Length of Visible Light
Length of Day
Tomorrow will be .
, % of the Moon is Illuminated

Today's Extremes

State Highs State Lows

Community

WunderPhotos

Upload Photos

1,962,540 photos uploaded!

WunderBlog® & News

Nearby

Air Quality

  Air Quality AQ Index Pollutant
Not available.

Snow Depth

Station Depth Elevation

Earthquake Activity

City Distance Mag. Time & Date
Minimum magnitude displayed is 2.5.

Coastal Water Temperatures

Place Temperature

Stations

Nearby Weather Stations

Station Location Temp. Windchill Dew Point Humidity Wind Precip. Elev Updated Type
                   

Watches & Warnings

There are currently no watches in effect.